Bat Cave, NC

3:52 AM EDT on September 28, 2016 (GMT -0400)
Asheville Regional

Weather History for KAVL - May, 2013

Change the Weather History Date:

Thursday, May 30, 2013

  Actual Average Record
Temperature  
Mean Temperature 68 °F 67 °F  
Max Temperature 79 °F 78 °F 91 °F (1969)
Min Temperature 57 °F 55 °F 40 °F (1893)
Degree Days  
Heating Degree Days 0 1  
Month to date heating degree days 139 108  
Since 1 July heating degree days 4077 4180  
Cooling Degree Days 3 3  
Month to date cooling degree days 40 50  
Year to date cooling degree days 45 58  
Growing Degree Days 18 (Base 50)    
Moisture  
Dew Point 58 °F    
Average Humidity 73    
Maximum Humidity 97    
Minimum Humidity 48    
Precipitation  
Precipitation 0.00 in 0.13 in 4.18 in (1889)
Month to date precipitation 7.78 3.53  
Year to date precipitation 29.12 18.12  
Snow  
Snow 0.00 in 0.00 in 0.00 in ()
Month to date snowfall 0.0 0.0  
Since 1 July snowfall 0.5 9.9  
Snow Depth 0.00 in    
Sea Level Pressure  
Sea Level Pressure 30.23 in    
Wind  
Wind Speed 4 mph (SSE)    
Max Wind Speed 15 mph    
Max Gust Speed 20 mph    
Visibility 10 miles    
Events      
T = Trace of Precipitation, MM = Missing Value Source: NWS Daily Summary

Daily Weather History Graph

Daily Weather History Graph

Search for Another Location

Airport or City:

Trip Planner

Search our weather history database for the weather conditions in past years. The results will help you decide how hot, cold, wet, or windy it might be!

Date:

Astronomy

May. 30, 2013 Rise Set
Actual Time 6:16 AM EDT 8:38 PM EDT
Civil Twilight 5:47 AM EDT 9:08 PM EDT
Nautical Twilight 5:11 AM EDT 9:44 PM EDT
Astronomical Twilight 4:32 AM EDT 10:23 PM EDT
Moon 12:46 AM EDT (5/30) 12:15 PM EDT (5/30)
Length of Visible Light 15h 20m
Length of Day
14h 22m
Waning Gibbous, 62% of the Moon is Illuminated
May 30
Waning Gibbous
May 31
Last Quarter
Jun 8
New
Jun 16
First Quarter
Jun 23
Full

Hourly Weather History & Observations

Time (EDT) Temp. Dew Point Humidity Pressure Visibility Wind Dir Wind Speed Gust Speed Precip Events Conditions
12:54 AM 61.0 °F 59.0 °F 93% 30.20 in 10.0 mi Calm Calm - N/A   Clear
1:54 AM 61.0 °F 57.9 °F 90% 30.20 in 10.0 mi Calm Calm - N/A   Partly Cloudy
2:54 AM 59.0 °F 57.9 °F 96% 30.19 in 9.0 mi Calm Calm - N/A   Clear
3:34 AM 57.2 °F 55.4 °F 94% 30.26 in 9.0 mi SW 3.5 mph - N/A   Partly Cloudy
3:54 AM 57.9 °F 55.9 °F 93% 30.20 in 10.0 mi Calm Calm - N/A   Clear
4:54 AM 57.0 °F 55.9 °F 96% 30.22 in 10.0 mi Calm Calm - N/A   Clear
5:36 AM 57.2 °F 55.4 °F 94% 30.29 in 10.0 mi Calm Calm - N/A   Mostly Cloudy
5:54 AM 57.9 °F 55.9 °F 93% 30.23 in 10.0 mi SE 3.5 mph - N/A   Mostly Cloudy
6:28 AM 57.2 °F 55.4 °F 94% 30.31 in 8.0 mi SSE 3.5 mph - N/A   Scattered Clouds
6:54 AM 57.9 °F 55.9 °F 93% 30.25 in 9.0 mi Calm Calm - N/A   Clear
7:54 AM 61.0 °F 57.9 °F 90% 30.26 in 10.0 mi Calm Calm - N/A   Clear
8:50 AM 64.4 °F 60.8 °F 88% 30.33 in 10.0 mi SSE 3.5 mph - N/A   Mostly Cloudy
8:54 AM 64.0 °F 60.1 °F 87% 30.27 in 10.0 mi SSE 3.5 mph - N/A   Mostly Cloudy
9:10 AM 66.2 °F 60.8 °F 83% 30.33 in 10.0 mi SSE 3.5 mph - N/A   Mostly Cloudy
9:54 AM 69.1 °F 61.0 °F 75% 30.28 in 10.0 mi SE 3.5 mph - N/A   Overcast
10:54 AM 72.0 °F 60.1 °F 66% 30.26 in 10.0 mi SE 4.6 mph - N/A   Mostly Cloudy
11:01 AM 73.4 °F 60.8 °F 65% 30.32 in 10.0 mi South 6.9 mph - N/A   Mostly Cloudy
11:17 AM 71.6 °F 60.8 °F 69% 30.32 in 10.0 mi SSE 5.8 mph - N/A   Scattered Clouds
11:54 AM 75.0 °F 60.1 °F 60% 30.25 in 10.0 mi ESE 4.6 mph - 0.01 in   Clear
12:54 PM 77.0 °F 60.1 °F 56% 30.24 in 10.0 mi South 8.1 mph - N/A   Mostly Cloudy
1:54 PM 78.1 °F 59.0 °F 52% 30.21 in 10.0 mi Variable 6.9 mph - N/A   Scattered Clouds
2:54 PM 78.1 °F 57.9 °F 50% 30.20 in 10.0 mi East 5.8 mph - N/A   Clear
3:54 PM 78.1 °F 57.0 °F 48% 30.19 in 10.0 mi SSE 9.2 mph - N/A   Partly Cloudy
4:54 PM 79.0 °F 57.0 °F 47% 30.18 in 10.0 mi SSE 10.4 mph 17.3 mph N/A   Clear
5:54 PM 77.0 °F 57.0 °F 50% 30.17 in 10.0 mi South 12.7 mph - N/A   Clear
6:54 PM 75.9 °F 57.9 °F 54% 30.18 in 10.0 mi SSE 9.2 mph - N/A   Clear
7:54 PM 73.9 °F 57.9 °F 57% 30.18 in 10.0 mi SSE 5.8 mph - N/A   Clear
8:54 PM 71.1 °F 59.0 °F 66% 30.19 in 10.0 mi Calm Calm - N/A   Clear
9:54 PM 69.1 °F 59.0 °F 70% 30.19 in 10.0 mi Calm Calm - N/A   Clear
10:54 PM 66.9 °F 60.1 °F 79% 30.21 in 10.0 mi Calm Calm - N/A   Clear
11:54 PM 64.9 °F 60.1 °F 84% 30.20 in 10.0 mi Calm Calm - N/A   Mostly Cloudy